| time (UTC) | temp C | wind direction | speed KPH | gust KPH | rain 1hr cm | rain 24hr cm | rain mn cm | humidity % | barometer mb |
| 20260503053039 | 27 | 136 | 17.7 | 24.1 | 0.00 | 0.00 | 0.00 | 87 | 206.0 |
| 20260503051539 | 27 | 132 | 17.7 | 27.4 | 0.00 | 0.00 | 0.00 | 87 | 206.0 |
| 20260503050044 | 27 | 136 | 17.7 | 25.7 | 0.00 | 0.00 | 0.00 | 88 | 206.0 |
| 20260503044542 | 27 | 127 | 16.1 | 20.9 | 0.00 | 0.00 | 0.00 | 90 | 206.0 |
| 20260503043050 | 27 | 124 | 16.1 | 22.5 | 0.00 | 0.00 | 0.00 | 92 | 206.0 |
| 20260503041542 | 26 | 122 | 17.7 | 22.5 | 0.00 | 0.00 | 0.00 | 90 | 206.0 |
| 20260503040055 | 26 | 120 | 17.7 | 22.5 | 0.00 | 0.00 | 0.00 | 90 | 206.0 |
| 20260503034547 | 27 | 129 | 17.7 | 25.7 | 0.00 | 0.00 | 0.00 | 90 | 206.0 |
| 20260503033046 | 26 | 119 | 20.9 | 24.1 | 0.00 | 0.00 | 0.00 | 89 | 206.0 |
| 20260503031543 | 27 | 115 | 19.3 | 25.7 | 0.00 | 0.00 | 0.00 | 90 | 206.0 |
| 20260503030040 | 27 | 108 | 20.9 | 27.4 | 0.00 | 0.00 | 0.00 | 90 | 206.0 |
| 20260503024537 | 26 | 116 | 20.9 | 25.7 | 0.00 | 0.00 | 0.00 | 90 | 206.0 |
| 20260503023055 | 26 | 116 | 20.9 | 24.1 | 0.00 | 0.00 | 0.00 | 90 | 206.0 |
| 20260503021550 | 27 | 102 | 17.7 | 25.7 | 0.00 | 0.00 | 0.00 | 91 | 206.0 |
| 20260503020049 | 27 | 96 | 19.3 | 27.4 | 0.00 | 0.00 | 0.00 | 90 | 206.0 |
| 20260503014541 | 27 | 110 | 19.3 | 27.4 | 0.00 | 0.00 | 0.00 | 90 | 206.0 |
| 20260503013040 | 27 | 105 | 20.9 | 27.4 | 0.00 | 0.00 | 0.00 | 89 | 206.0 |
| 20260503011535 | 27 | 105 | 19.3 | 27.4 | 0.00 | 0.00 | 0.00 | 90 | 206.0 |
| 20260503010043 | 27 | 120 | 22.5 | 29.0 | 0.00 | 0.00 | 0.00 | 88 | 206.0 |
| 20260503004555 | 27 | 127 | 22.5 | 30.6 | 0.00 | 0.00 | 0.00 | 87 | 206.0 |
| 20260503003100 | 27 | 135 | 24.1 | 30.6 | 0.00 | 0.00 | 0.00 | 86 | 206.0 |
| 20260503001538 | 27 | 134 | 24.1 | 30.6 | 0.00 | 0.00 | 0.00 | 86 | 206.0 |
| 20260503000043 | 27 | 146 | 25.7 | 32.2 | 0.00 | 0.00 | 0.00 | 87 | 206.0 |
| 20260502234541 | 27 | 141 | 24.1 | 32.2 | 0.00 | 0.00 | 0.00 | 87 | 206.0 |
| 20260502233040 | 27 | 129 | 24.1 | 30.6 | 0.00 | 0.00 | 0.00 | 86 | 206.0 |
| 20260502231548 | 27 | 158 | 22.5 | 30.6 | 0.00 | 0.00 | 0.00 | 86 | 206.0 |
| 20260502230048 | 27 | 141 | 22.5 | 30.6 | 0.00 | 0.00 | 0.00 | 87 | 206.0 |
| 20260502224545 | 28 | 131 | 20.9 | 27.4 | 0.00 | 0.00 | 0.00 | 84 | 206.0 |
| 20260502223041 | 28 | 128 | 19.3 | 27.4 | 0.00 | 0.00 | 0.00 | 84 | 206.0 |
| 20260502221538 | 28 | 147 | 22.5 | 29.0 | 0.00 | 0.00 | 0.00 | 82 | 206.0 |
| 20260502220037 | 28 | 149 | 22.5 | 29.0 | 0.00 | 0.00 | 0.00 | 84 | 206.0 |
| 20260502214543 | 28 | 126 | 24.1 | 29.0 | 0.00 | 0.00 | 0.00 | 83 | 206.0 |
| 20260502213058 | 28 | 118 | 22.5 | 29.0 | 0.00 | 0.00 | 0.00 | 83 | 206.0 |
| 20260502211538 | 29 | 147 | 20.9 | 27.4 | 0.00 | 0.00 | 0.00 | 82 | 206.0 |
| 20260502210038 | 29 | 148 | 19.3 | 27.4 | 0.00 | 0.00 | 0.00 | 83 | 206.0 |
| 20260502204546 | 28 | 136 | 20.9 | 29.0 | 0.00 | 0.00 | 0.00 | 84 | 206.0 |
| 20260502203045 | 28 | 148 | 20.9 | 29.0 | 0.00 | 0.00 | 0.00 | 83 | 206.0 |
| 20260502201541 | 28 | 158 | 22.5 | 29.0 | 0.00 | 0.00 | 0.00 | 85 | 206.0 |
| 20260502200100 | 28 | 163 | 22.5 | 30.6 | 0.00 | 0.00 | 0.00 | 83 | 206.0 |
| 20260502194543 | 28 | 149 | 24.1 | 30.6 | 0.00 | 0.00 | 0.00 | 84 | 206.0 |
| 20260502193042 | 28 | 152 | 22.5 | 27.4 | 0.00 | 0.00 | 0.00 | 85 | 206.0 |
| 20260502191543 | 28 | 133 | 20.9 | 25.7 | 0.00 | 0.00 | 0.00 | 85 | 206.0 |
| 20260502190043 | 28 | 139 | 22.5 | 29.0 | 0.00 | 0.00 | 0.00 | 84 | 206.0 |
| 20260502184535 | 28 | 153 | 22.5 | 27.4 | 0.00 | 0.00 | 0.00 | 85 | 206.0 |
| 20260502183048 | 28 | 153 | 22.5 | 30.6 | 0.00 | 0.00 | 0.00 | 84 | 206.0 |
| 20260502181544 | 28 | 131 | 22.5 | 30.6 | 0.00 | 0.00 | 0.00 | 84 | 206.0 |
| 20260502163036 | 28 | 124 | 20.9 | 27.4 | 0.00 | 0.00 | 0.00 | 84 | 206.0 |
| 20260502161548 | 28 | 150 | 20.9 | 30.6 | 0.00 | 0.00 | 0.00 | 84 | 206.0 |
| 20260502151535 | 27 | 127 | 20.9 | 27.4 | 0.00 | 0.00 | 0.00 | 86 | 206.0 |
| 20260502123043 | 26 | 115 | 19.3 | 27.4 | 0.00 | 0.00 | 0.00 | 90 | 206.0 |
| 20260502121543 | 26 | 118 | 22.5 | 30.6 | 0.00 | 0.00 | 0.00 | 91 | 206.0 |
| 20260502114541 | 26 | 101 | 19.3 | 25.7 | 0.00 | 0.00 | 0.00 | 91 | 206.0 |
| 20260502113046 | 26 | 100 | 19.3 | 27.4 | 0.00 | 0.00 | 0.00 | 92 | 206.0 |
| 20260502111537 | 26 | 108 | 24.1 | 30.6 | 0.00 | 0.00 | 0.00 | 92 | 206.0 |
| 20260502110036 | 26 | 95 | 22.5 | 30.6 | 0.00 | 0.00 | 0.00 | 92 | 206.0 |
| 20260502104544 | 25 | 97 | 22.5 | 29.0 | 0.00 | 0.00 | 0.00 | 93 | 206.0 |
| 20260502103102 | 25 | 91 | 22.5 | 27.4 | 0.00 | 0.00 | 0.00 | 94 | 206.0 |
| 20260502101548 | 25 | 104 | 20.9 | 27.4 | 0.00 | 0.00 | 0.00 | 94 | 206.0 |
| 20260502070046 | 26 | 128 | 20.9 | 25.7 | 0.00 | 0.00 | 0.00 | 91 | 206.0 |
| 20260502064544 | 26 | 120 | 20.9 | 27.4 | 0.00 | 0.00 | 0.00 | 91 | 206.0 |
| 20260502063050 | 26 | 124 | 24.1 | 27.4 | 0.00 | 0.00 | 0.00 | 91 | 206.0 |
| 20260502061542 | 26 | 134 | 22.5 | 30.6 | 0.00 | 0.00 | 0.00 | 90 | 206.0 |
| 20260502060039 | 26 | 114 | 24.1 | 29.0 | 0.00 | 0.00 | 0.00 | 90 | 206.0 |
| 20260502054552 | 26 | 114 | 24.1 | 30.6 | 0.00 | 0.00 | 0.00 | 89 | 206.0 |